FW3585 Weather Reports


Display with metric or nautical units.
time (UTC)temp
F
wind
direction
speed
MPH
gust
MPH
rain 1hr
in
rain 24hr
in
rain mn
in
humidity
%
barometer
mb
20260902100034 72 360 0.0 0.0 0.00 0.00 0.00 90 1017.8
20260902094533 72 360 0.0 4.0 0.00 0.00 0.00 90 1017.8
20260902093032 72 355 0.0 0.0 0.00 0.00 0.00 91 1017.6
20260902091542 72 355 0.0 0.0 0.00 0.00 0.00 90 1017.8
20260902090033 72 355 0.0 0.0 0.00 0.00 0.00 90 1017.7
20260902084529 73 355 0.0 0.0 0.00 0.00 0.00 89 1017.7
20260902083029 73 355 0.0 0.0 0.00 0.00 0.00 88 1017.5
20260902081536 73 355 0.0 0.0 0.00 0.00 0.00 88 1017.5
20260902080027 73 355 0.0 0.0 0.00 0.00 0.00 89 1017.6
20260902074538 73 355 0.0 2.0 0.00 0.00 0.00 88 1017.5
20260902073024 73 355 1.0 4.0 0.00 0.00 0.00 88 1017.4
20260902071524 73 355 1.0 3.0 0.00 0.00 0.00 87 1017.4
20260902070021 74 355 0.0 2.0 0.00 0.00 0.00 86 1017.5
20260902064530 75 355 1.0 4.0 0.00 0.00 0.00 85 1017.6
20260902063023 74 355 1.0 4.0 0.00 0.00 0.00 86 1017.7
20260902061535 74 5 2.0 5.0 0.00 0.00 0.00 86 1017.7
20260902060018 75 18 0.0 0.0 0.00 0.00 0.00 85 1017.6
20260902054527 76 18 0.0 0.0 0.00 0.00 0.00 83 1017.7
20260902053013 76 18 0.0 0.0 0.00 0.00 0.00 82 1017.5
20260902051507 77 18 0.0 0.0 0.00 0.00 0.00 81 1017.4
20260902050007 78 18 0.0 0.0 0.00 0.00 0.00 80 1017.3
20260902044501 78 18 0.0 0.0 0.00 0.00 0.00 79 1017.1
20260902043104 79 18 0.0 0.0 0.00 0.00 0.00 78 1017.0
20260902041559 79 18 0.0 0.0 0.00 0.00 0.00 78 1016.9
20260902040058 79 19 0.0 3.0 0.00 0.00 0.00 79 1016.8
20260902034605 78 19 1.0 4.0 0.00 0.00 0.00 80 1016.8
20260902033103 77 348 2.0 5.0 0.00 0.00 0.00 81 1017.0
20260902031554 77 337 3.0 5.0 0.00 0.00 0.00 84 1016.8
20260902030053 77 315 1.0 3.0 0.00 0.00 0.00 83 1016.9
20260902024553 78 308 0.0 2.0 0.00 0.00 0.00 82 1017.0
20260902023053 78 308 0.0 2.0 0.00 0.00 0.00 80 1016.9
20260902021551 79 19 1.0 2.0 0.00 0.00 0.00 79 1016.9
20260902020059 80 19 0.0 2.0 0.00 0.00 0.00 77 1016.6
20260902014552 81 16 0.0 0.0 0.00 0.00 0.00 75 1016.5
20260902013050 81 16 0.0 2.0 0.00 0.00 0.00 74 1016.3
20260902011549 83 16 0.0 0.0 0.00 0.00 0.00 73 1016.3
20260902010053 83 16 0.0 0.0 0.00 0.00 0.00 71 1015.9
20260902004550 84 16 0.0 0.0 0.00 0.00 0.00 69 1015.7
20260902003049 85 5 0.0 1.0 0.00 0.00 0.00 68 1015.5
20260902001556 86 10 0.0 1.0 0.00 0.00 0.00 66 1015.4
20260902000047 88 348 0.0 1.0 0.00 0.00 0.00 66 1015.4
20260901234548 89 348 0.0 0.0 0.00 0.00 0.00 64 1015.4
20260901233057 90 347 0.0 0.0 0.00 0.00 0.00 61 1015.7
20260901231547 90 347 0.0 0.0 0.00 0.00 0.00 61 1015.9
20260901230044 91 347 0.0 0.0 0.00 0.00 0.00 60 1015.9
20260901224544 92 347 0.0 0.0 0.00 0.00 0.00 55 1015.7
20260901223046 92 347 0.0 2.0 0.00 0.00 0.00 54 1015.6
20260901221542 93 332 1.0 5.0 0.00 0.00 0.00 53 1015.6
20260901220106 93 336 2.0 6.0 0.00 0.00 0.00 53 1015.7
20260901214539 94 302 2.0 7.0 0.00 0.00 0.00 53 1015.9
20260901213036 94 314 0.0 3.0 0.00 0.00 0.00 52 1015.9
20260901211538 93 341 0.0 9.0 0.00 0.00 0.00 52 1015.9
20260901210031 94 241 0.0 5.0 0.00 0.00 0.00 51 1016.3
20260901204530 93 329 1.0 8.0 0.00 0.00 0.00 48 1016.3
20260901203036 93 331 2.0 9.0 0.00 0.00 0.00 49 1016.2
20260901201526 92 327 4.0 11.0 0.00 0.00 0.00 54 1016.3
20260901200026 93 333 3.0 12.0 0.00 0.00 0.00 53 1016.5
20260901194524 91 325 5.0 11.0 0.00 0.00 0.00 52 1016.5
20260901193025 93 343 3.0 8.0 0.00 0.00 0.00 50 1016.6
20260901191521 93 300 2.0 8.0 0.00 0.00 0.00 50 1016.9
20260901190023 93 290 2.0 12.0 0.00 0.00 0.00 53 1016.9
20260901184518 92 313 1.0 6.0 0.00 0.00 0.00 52 1017.1
20260901183015 93 232 1.0 10.0 0.00 0.00 0.00 53 1017.2
20260901181518 92 339 6.0 11.0 0.00 0.00 0.00 50 1017.3
20260901180014 92 306 5.0 10.0 0.00 0.00 0.00 53 1017.2
20260901174513 92 84 1.0 6.0 0.00 0.00 0.00 56 1017.2
20260901173008 91 355 2.0 8.0 0.00 0.00 0.00 55 1017.1
20260901171506 91 342 1.0 11.0 0.00 0.00 0.00 60 1017.3
20260901170009 90 329 4.0 10.0 0.00 0.00 0.00 54 1017.5
20260901164607 90 299 3.0 10.0 0.00 0.00 0.00 56 1017.8
20260901163056 89 273 4.0 10.0 0.00 0.00 0.00 61 1018.1
20260901161557 88 360 2.0 13.0 0.00 0.00 0.00 62 1018.2
20260901160055 87 290 2.0 8.0 0.00 0.00 0.00 61 1018.2
20260901154554 88 333 2.0 6.0 0.00 0.00 0.00 63 1018.3
20260901153048 89 303 2.0 8.0 0.00 0.00 0.00 62 1018.5
20260901151548 88 275 2.0 6.0 0.00 0.00 0.00 64 1018.5
20260901150057 88 271 1.0 6.0 0.00 0.00 0.00 66 1018.6
20260901144543 87 325 0.0 4.0 0.00 0.00 0.00 66 1018.7
20260901143032 87 224 1.0 4.0 0.00 0.00 0.00 68 1018.8
20260901141528 85 319 0.0 0.0 0.00 0.00 0.00 70 1018.7
20260901140024 84 275 0.0 0.0 0.00 0.00 0.00 72 1018.8
20260901134520 83 321 0.0 0.0 0.00 0.00 0.00 74 1018.8
20260901133016 81 324 0.0 5.0 0.00 0.00 0.00 77 1018.8
20260901131519 80 337 2.0 4.0 0.00 0.00 0.00 79 1018.8
20260901130006 78 360 2.0 4.0 0.00 0.00 0.00 84 1019.0
20260901124502 76 355 2.0 4.0 0.00 0.00 0.00 84 1019.0
20260901123114 75 355 2.0 5.0 0.00 0.00 0.00 87 1019.0
20260901121605 74 5 2.0 3.0 0.00 0.00 0.00 88 1018.8
20260901120104 73 5 1.0 4.0 0.00 0.00 0.00 90 1018.7
20260901114553 72 360 1.0 4.0 0.00 0.00 0.00 94 1018.7
20260901113056 69 348 1.0 2.0 0.00 0.00 0.00 97 1018.6
20260901111544 70 348 2.0 3.0 0.00 0.00 0.00 98 1018.4
20260901110040 69 347 1.0 3.0 0.00 0.00 0.00 97 1018.3
20260901104550 69 341 0.0 1.0 0.00 0.00 0.00 97 1018.2
20260901103040 68 341 0.0 2.0 0.00 0.00 0.00 97 1018.1
20260901101538 69 341 0.0 2.0 0.00 0.00 0.00 97 1018.0